Presure
338 337 301 290 260 255 261 247 253 242 240 236 227 236 227 229 222 206 201 194 180 190 181 179 172 167 166 168 169 168 168 163 139 173 164 166 168 179 164 174 174 172 165 120 175
315 327 339 303 260 257 254 245 247 249 226 243 231 239 231 233 225 218 210 204 194 188 175 181 187 174 177 169 166 158 159 170 175 168 163 149 161 169 165 165 155 171 161 174 178
307 363 321 302 290 269 264 239 264 252 240 236 237 239 209 243 219 224 221 205 205 205 195 182 196 178 184 185 197 191 164 177 173 172 168 164 170 160 166 175 177 153 178 181 179
298 301 326 326 324 280 262 251 260 250 247 223 223 235 246 203 242 219 228 224 204 196 205 207 198 198 198 199 202 193 196 173 177 175 173 177 180 189 179 169 176 213 191 227 210
291 296 296 303 321 307 281 263 252 245 254 247 232 235 232 228 232 232 231 217 227 201 201 205 199 202 201 201 208 207 192 200 201 179 175 196 204 180 212 237 113 237 167 212 179
283 286 287 288 295 346 304 303 313 271 244 266 239 225 235 227 223 242 210 231 224 221 207 200 207 197 198 202 197 206 201 198 199 200 196 201 211 228 224 196 201 194 217 183 175
299 272 268 277 277 291 339 289 287 294 295 248 256 247 235 237 237 240 233 217 232 221 222 214 205 198 204 203 206 200 204 206 215 215 221 221 217 223 222 217 177 212 216 195 210
271 289 266 259 266 274 282 326 285 279 290 259 259 257 238 235 233 242 242 239 214 239 222 216 217 207 210 215 211 208 207 206 207 209 208 215 220 217 217 213 212 213 185 202 218
273 271 262 244 253 255 272 278 318 277 261 276 261 257 243 233 237 230 247 217 248 225 242 223 218 213 203 203 211 215 211 187 214 196 212 218 213 208 214 211 204 210 208 214 208
536 529 300 283 250 250 245 263 278 299 270 256 262 255 253 253 243 237 243 255 228 247 239 221 227 216 214 202 200 209 214 213 214 210 214 212 212 210 212 209 208 208 210 207 216
514 569 580 633 297 256 245 247 264 277 297 276 256 264 258 255 245 239 253 247 272 272 265 244 222 222 215 212 200 206 207 211 199 209 214 203 213 218 204 208 202 206 211 204 207
533 524 528 592 509 299 252 247 260 261 252 274 321 267 261 261 263 261 259 253 267 300 269 247 222 217 218 209 201 205 209 210 210 212 207 185 200 210 207 220 206 205 207 204 208
499 506 501 552 507 491 286 248 240 250 248 267 309 309 278 264 266 274 259 274 286 276 252 260 234 218 217 213 199 210 219 207 213 212 213 213 209 213 206 208 219 209 203 206 208
457 453 488 539 480 476 295 255 239 249 252 264 292 286 286 286 286 282 272 272 273 254 254 256 240 219 217 216 209 207 206 207 209 210 209 209 175 214 206 208 212 218 219 203 208
436 440 476 484 474 484 325 285 240 245 254 272 288 277 273 269 264 260 259 266 261 240 255 240 236 220 217 214 208 206 206 208 212 213 210 209 213 208 201 211 217 218 219 224 213
420 424 460 500 461 409 326 292 249 245 258 284 279 269 262 258 254 253 253 256 256 250 250 249 231 225 216 210 211 208 208 210 214 213 213 208 220 125 175 221 225 229 234 233 232
428 422 451 495 470 356 320 262 251 253 258 285 276 259 255 252 250 246 239 243 242 239 239 234 229 226 213 211 210 209 210 211 214 217 219 226 238 191 224 182 250 139 241 240 236
435 434 517 560 360 348 314 256 251 257 258 285 271 257 250 250 245 236 233 231 229 228 219 228 224 218 218 215 214 215 219 222 228 242 258 210 236 233 87 117 261 166 262 246 232
435 472 551 490 412 349 304 256 253 258 248 280 264 249 251 243 237 230 228 225 221 227 224 206 213 224 227 244 272 274 271 265 249 241 241 239 234 87 231 226 150 257 268 200 160
459 511 465 504 397 319 290 258 239 240 273 278 257 250 243 239 232 237 226 226 222 238 274 266 261 251 247 249 245 234 230 222 220 225 232 278 329 251 123 177 242 107 119 184 334
445 447 483 363 329 310 261 248 237 247 279 267 254 242 246 235 236 225 219 258 262 254 251 248 243 243 236 219 213 212 214 228 269 303 316 340 347 71 353 302 379 386 348 314 300
469 458 377 344 322 266 250 232 238 249 277 260 248 239 230 228 223 258 283 267 250 243 234 233 228 203 212 206 209 243 263 256 249 289 284 294 87 317 360 209 108 327 382 368 386
489 530 360 345 320 261 253 220 236 272 283 250 245 232 219 215 221 218 249 242 232 222 216 215 216 203 207 229 231 248 259 250 256 266 262 282 291 307 323 340 298 84 370 365 386
465 405 355 325 259 265 217 228 217 277 262 250 238 220 219 219 215 214 216 217 218 214 217 217 207 224 230 254 228 233 231 235 243 84 262 264 286 296 307 353 363 364 386 363 386
392 348 325 311 250 256 237 233 226 274 261 244 229 223 218 222 222 218 214 213 219 219 217 200 218 226 252 235 220 226 226 227 240 125 131 184 90 97 306 320 395 394 386 367 368
382 332 322 318 227 243 232 217 232 249 251 244 233 221 220 219 221 219 217 223 225 212 197 216 237 223 241 232 216 225 217 224 229 228 245 252 259 292 314 326 355 396 404 374 370
324 306 344 337 271 244 234 213 234 230 262 248 240 232 224 222 224 223 217 216 211 209 239 232 219 243 184 237 215 218 219 217 220 233 231 246 253 272 336 340 301 346 345 336 317
Wind_Speed
42 55 67 78 79 78 82 80 84 78 80 79 78 80 81 80 86 89 93 93 87 93 92 92 88 83 81 82 83 82 80 82 68 77 72 67 66 74 72 77 75 73 75 51 73
40 46 54 77 71 75 78 80 80 84 77 82 78 76 81 81 82 88 89 90 96 97 85 90 92 91 93 85 83 77 76 90 84 74 72 62 70 72 74 74 69 76 71 72 79
35 41 50 72 79 83 81 73 84 80 82 81 81 79 76 83 82 85 87 89 91 92 100 88 95 96 98 92 93 97 83 92 86 78 76 74 78 72 77 82 86 72 78 81 80
38 38 39 50 64 86 84 76 85 80 78 81 78 81 81 73 82 85 84 87 91 88 90 92 96 96 95 93 89 86 92 88 89 84 83 89 88 89 88 79 82 82 83 73 75
42 41 42 40 53 61 70 82 81 80 81 82 82 83 82 73 80 84 85 85 86 89 89 90 88 90 89 90 86 82 93 89 92 92 82 87 86 79 74 64 50 66 69 70 69
41 44 44 45 45 51 63 67 73 88 79 85 84 79 83 82 77 83 82 84 86 88 91 89 89 87 89 89 86 79 82 86 87 88 91 83 76 64 65 71 73 75 69 70 67
42 48 47 48 47 48 50 61 67 74 79 77 82 88 82 85 84 81 84 82 87 88 89 92 92 88 89 89 89 84 83 83 81 78 74 74 70 63 69 66 69 69 67 70 68
48 49 53 54 52 49 50 49 65 71 77 77 80 85 84 81 82 80 83 83 83 89 86 88 90 88 87 86 89 87 83 79 76 75 74 70 62 66 67 71 69 70 71 71 67
67 61 57 57 58 56 51 52 52 70 70 79 79 85 81 83 84 81 77 79 82 83 91 88 88 86 83 81 80 82 81 69 77 78 70 70 69 73 69 73 70 67 67 65 73
58 55 76 67 64 63 58 55 57 57 75 72 78 79 80 85 85 81 79 79 80 80 86 84 86 83 84 81 79 77 77 78 78 76 73 71 69 75 72 73 71 71 69 69 64
43 31 25 27 76 71 65 65 60 56 53 79 75 78 83 87 81 76 75 73 75 80 83 90 79 83 81 79 78 77 77 76 77 76 74 72 70 71 75 75 76 74 72 74 69
25 21 22 19 41 80 73 70 55 51 59 59 53 78 78 79 80 78 71 68 64 63 77 86 81 79 77 78 78 76 76 77 78 78 74 73 71 73 77 76 80 79 79 77 74
19 20 18 17 38 47 77 73 58 56 56 51 49 51 75 69 69 72 67 62 58 62 72 80 85 77 75 74 74 75 76 76 76 77 78 79 72 79 74 77 79 85 83 80 79
19 18 17 12 38 49 80 76 61 57 55 49 45 48 51 53 53 51 53 54 55 65 67 73 84 74 72 73 74 72 73 74 76 78 79 79 56 78 78 80 81 84 87 85 84
19 18 16 14 38 55 77 71 67 61 58 48 44 45 48 46 48 49 50 51 56 62 64 70 76 72 72 72 71 71 73 74 78 80 78 81 86 75 83 89 90 88 89 91 89
18 15 14 10 43 68 77 73 71 64 54 43 44 45 45 44 46 48 47 47 53 58 59 65 71 72 68 67 69 68 70 76 80 82 81 87 94 46 52 94 95 95 93 91 93
18 18 14 17 48 77 78 70 71 48 43 43 46 47 44 45 45 45 47 47 49 51 54 58 63 65 65 67 69 70 74 77 80 84 86 93 100 69 93 77 103 51 96 96 92
16 20 13 22 76 79 70 68 48 42 40 42 46 44 43 42 43 45 47 48 50 51 53 52 57 60 63 66 69 72 77 82 84 89 88 74 84 80 24 10 100 58 99 96 93
15 18 6 31 80 72 67 53 45 44 40 42 46 42 40 41 45 46 46 46 45 47 49 44 52 58 59 59 54 55 59 66 68 72 78 77 85 24 87 78 42 88 93 65 48
17 4 25 38 72 68 62 46 41 42 38 44 46 43 43 43 42 42 42 40 40 34 24 28 27 28 34 36 35 42 51 58 69 71 79 63 59 39 31 38 43 19 24 64 104
9 19 27 68 68 62 52 46 42 37 38 45 43 38 36 36 34 34 34 27 23 22 25 23 25 26 26 31 39 47 51 60 47 34 41 41 33 10 60 60 60 62 51 105 101
5 25 65 69 61 52 47 42 38 37 43 43 41 39 35 32 33 24 24 23 23 23 24 23 22 26 29 37 42 35 25 26 37 31 36 38 15 39 41 23 12 35 51 55 42
3 12 64 61 56 48 45 35 36 38 43 43 42 39 37 35 31 29 27 26 27 28 26 22 19 27 32 29 30 16 17 19 27 36 40 43 44 42 43 36 36 13 35 39 30
29 48 57 48 34 46 16 34 31 35 43 43 42 40 38 35 32 31 30 28 25 23 18 16 22 22 19 5 14 15 18 25 31 14 41 47 46 48 48 35 35 32 24 34 30
35 38 42 44 34 43 36 34 33 39 43 43 39 39 38 34 32 31 27 25 22 20 16 26 21 18 9 10 6 11 18 22 34 15 14 20 14 13 41 41 21 16 12 17 30
31 25 31 42 5 26 33 22 34 35 42 43 42 40 36 33 33 31 28 26 21 17 25 21 17 17 5 5 7 8 9 20 27 28 42 47 52 57 37 32 30 10 8 22 35
6 11 32 41 46 38 34 17 36 34 42 43 42 41 36 34 32 29 27 21 17 16 11 10 11 6 8 7 13 4 8 10 17 31 32 43 47 55 41 27 25 15 26 32 38
Wind_Direction
252 247 233 232 238 238 233 241 233 235 237 236 235 234 232 233 232 233 232 232 236 236 236 238 240 241 242 243 244 244 246 247 245 249 253 248 249 255 251 253 253 252 247 244 255
263 254 244 229 240 239 238 240 240 235 241 236 235 234 234 233 231 232 234 233 234 237 240 240 241 243 245 246 244 244 242 249 250 246 245 250 243 249 247 247 244 251 246 259 258
269 257 248 234 233 234 239 241 236 235 236 238 235 234 234 233 232 233 231 235 236 237 236 240 241 244 246 247 246 243 244 248 248 247 248 245 249 243 248 255 255 248 256 260 260
266 261 255 248 243 232 237 239 238 240 236 239 238 235 234 235 234 233 232 230 235 237 240 241 242 244 247 248 246 245 246 246 248 249 250 253 254 254 253 252 254 258 258 258 258
277 267 255 252 244 239 238 238 237 237 236 233 236 235 235 236 233 234 232 232 231 235 239 241 241 244 246 248 249 247 244 250 251 249 249 254 255 253 257 256 249 257 251 254 251
272 269 265 253 247 240 238 237 239 235 234 233 233 237 235 235 235 232 232 231 232 231 232 239 241 243 246 247 247 248 247 248 252 253 251 254 258 262 258 251 255 255 256 248 247
275 265 262 258 251 246 237 235 234 234 233 233 231 232 235 236 235 234 231 231 234 232 233 234 237 241 245 247 250 249 250 251 255 257 259 258 259 256 258 255 245 255 255 252 254
279 266 254 257 251 246 243 236 232 232 230 232 229 228 231 235 237 234 232 232 233 235 234 236 237 239 241 244 246 249 250 251 252 253 255 257 254 253 254 256 255 257 248 255 256
280 269 255 258 250 248 240 240 231 228 227 229 229 230 230 232 235 234 232 233 232 233 233 234 235 237 241 242 245 248 249 249 253 249 254 253 252 254 252 256 256 256 257 256 257
290 286 250 242 244 243 244 235 234 228 228 228 228 230 231 229 233 235 233 233 235 233 232 233 235 236 239 242 243 246 249 250 251 251 251 250 250 254 253 256 257 258 256 255 256
297 300 293 271 231 232 239 238 231 231 227 230 228 228 228 232 234 235 237 236 241 236 232 232 235 236 236 238 242 244 245 248 249 251 251 249 252 254 256 255 256 257 258 257 254
309 302 292 286 221 223 227 235 228 226 227 230 225 226 227 231 234 236 238 235 240 228 230 230 233 235 237 236 240 244 247 248 250 251 250 252 249 250 252 255 257 256 256 256 256
353 332 296 282 205 200 215 225 226 222 228 233 219 220 229 232 236 238 233 235 229 225 229 229 232 235 237 238 240 244 248 248 250 252 254 254 252 253 252 254 256 255 257 258 258
333 325 337 290 195 189 208 214 220 219 222 226 214 212 217 221 225 225 226 226 224 226 229 229 231 235 237 239 240 243 246 250 252 253 254 257 254 259 259 258 255 255 255 256 257
336 325 328 216 190 177 198 203 214 215 216 215 208 205 210 214 217 220 224 223 223 227 228 230 232 234 236 239 242 246 250 253 255 256 257 261 259 253 259 259 257 254 252 253 254
321 310 310 259 179 175 190 198 209 213 211 205 198 201 207 210 215 219 221 222 224 226 227 230 232 236 238 242 246 249 253 256 257 259 260 260 264 255 265 259 259 258 255 252 254
323 309 279 222 180 174 190 192 208 207 205 198 194 200 204 209 211 214 218 221 224 227 229 230 234 238 240 244 249 253 255 258 260 263 264 263 263 269 259 261 257 261 253 253 253
354 341 296 177 171 178 185 199 199 199 202 195 194 199 202 206 209 214 217 221 222 223 231 231 236 240 244 248 251 257 259 261 264 266 266 261 268 266 235 303 258 270 254 251 250
343 327 206 163 168 174 182 191 189 194 199 189 191 197 201 204 209 214 220 225 231 233 235 239 245 247 251 255 260 264 268 268 269 270 268 265 265 222 262 262 268 257 257 256 246
9 46 144 161 165 176 178 183 183 191 189 185 189 191 198 203 209 216 222 228 232 229 223 232 238 243 248 255 261 260 262 265 266 270 273 281 285 282 249 265 262 253 291 264 258
73 130 153 157 170 173 179 175 184 189 183 183 186 191 194 202 207 212 221 210 202 205 215 223 230 242 246 254 255 259 267 277 294 319 326 312 314 269 292 284 282 279 265 258 255
94 147 157 166 170 172 173 176 182 187 182 182 181 185 189 194 202 199 195 193 193 194 203 211 225 239 251 255 265 287 295 313 312 345 349 344 274 344 317 296 293 291 284 271 252
71 143 163 169 165 173 173 184 181 182 177 180 179 180 191 198 199 203 184 187 192 206 216 224 240 245 258 269 281 315 354 349 357 6 3 3 350 351 342 323 299 259 286 254 237
127 154 168 163 168 171 196 184 188 174 177 180 178 185 191 196 201 206 209 208 209 219 225 237 246 254 265 251 281 349 341 346 1 281 8 11 7 355 350 328 296 286 269 242 227
137 160 163 170 173 178 183 188 188 173 179 184 184 189 194 194 198 206 209 215 217 221 227 234 254 266 280 242 284 339 344 356 13 304 327 359 286 263 354 355 301 275 237 208 206
148 165 175 178 302 191 187 205 191 184 185 188 190 195 196 195 200 205 208 213 215 219 229 246 248 271 266 222 264 345 303 7 16 20 22 20 21 11 9 13 12 7 220 170 166
115 151 187 185 186 189 200 210 190 193 186 193 193 194 198 199 202 204 207 207 210 219 251 206 257 238 265 209 243 290 350 358 18 20 28 26 28 20 21 27 68 72 116 134 158